This is the latest recevied weather packets stored in our database for station/object K8RRT. If no packets are shown the sender has not sent any weather packets the latest 10 day(s).
| Time | Temp. | Humidity | Pressure | Rain* | Wind** | Luminosity | Snow |
|---|---|---|---|---|---|---|---|
| 1787943976 | 28.89° C | 60% | 1014.7 hPa | 0 mm | - | 711 W/m² | - |
| 1787943671 | 29.44° C | 60% | 1014.7 hPa | 0 mm | - | 681 W/m² | - |
| 1787943366 | 29.44° C | 61% | 1014.8 hPa | 0 mm | - | 665 W/m² | - |
| 1787943061 | 28.89° C | 62% | 1014.9 hPa | 0 mm | - | 678 W/m² | - |
| 1787942756 | 28.89° C | 63% | 1014.7 hPa | 0 mm | - | 679 W/m² | - |
| 1787942450 | 28.89° C | 59% | 1014.9 hPa | 0 mm | - | 687 W/m² | - |
| 1787942144 | 28.89° C | 62% | 1014.8 hPa | 0 mm | - | 693 W/m² | - |
| 1787941841 | 28.89° C | 63% | 1014.9 hPa | 0 mm | - | 748 W/m² | - |
| 1787941539 | 28.89° C | 63% | 1015 hPa | 0 mm | - | 775 W/m² | - |
| 1787941234 | 28.89° C | 65% | 1014.7 hPa | 0 mm | - | 729 W/m² | - |
| 1787940934 | 28.33° C | 67% | 1014.9 hPa | 0 mm | - | 671 W/m² | - |
| 1787940632 | 28.33° C | 64% | 1015.1 hPa | 0 mm | - | 156 W/m² | - |
| 1787940332 | 28.89° C | 66% | 1015 hPa | 0 mm | - | 736 W/m² | - |
| 1787940032 | 28.33° C | 68% | 1015 hPa | 0 mm | - | 739 W/m² | - |
| 1787939731 | 28.89° C | 68% | 1015 hPa | 0 mm | - | 794 W/m² | - |
| 1787939426 | 28.89° C | 70% | 1015.1 hPa | 0 mm | - | 808 W/m² | - |
| 1787939121 | 27.78° C | 73% | 1015.1 hPa | 0 mm | - | 752 W/m² | - |
| 1787938820 | 28.33° C | 69% | 1015 hPa | 0 mm | - | 179 W/m² | - |
| 1787938515 | 28.89° C | 67% | 1014.8 hPa | 0 mm | - | 723 W/m² | - |
| 1787938211 | 28.89° C | 64% | 1015.1 hPa | 0 mm | - | 793 W/m² | - |
| 1787937906 | 28.89° C | 69% | 1015.2 hPa | 0 mm | - | 808 W/m² | - |
| 1787937602 | 27.78° C | 68% | 1015 hPa | 0 mm | - | 784 W/m² | - |
| 1787937297 | 26.67° C | 76% | 1015.1 hPa | 0 mm | - | 765 W/m² | - |
| 1787936993 | 27.22° C | 75% | 1014.9 hPa | 0 mm | - | 149 W/m² | - |
| 1787936691 | 28.33° C | 70% | 1015.1 hPa | 0 mm | - | 418 W/m² | - |
* Rain latest hour (hover to see other rain measurements)
** Current wind speed in m/s (hover to see current wind gust speed)